Stündliche Wetter Abreu e Lima

Heute, 23 Juni, Mittwoch

Zeit Temperatur Niederschläge Wind Luftdruck Luftfeuchtigkeit
00:00 +25°C° 0.1 mm 3 m/S 759 mmHg 89%
01:00 +25°C° 0.1 mm 3 m/S 759 mmHg 90%
02:00 +25°C° 0.1 mm 3 m/S 759 mmHg 89%
03:00 +25°C° 0.1 mm 3 m/S 759 mmHg 89%
04:00 +25°C° 0 mm 3 m/S 758 mmHg 90%
05:00 +25°C° 0.1 mm 3 m/S 759 mmHg 89%
06:00 +25°C° 0.1 mm 3 m/S 759 mmHg 88%
07:00 +25°C° 0.1 mm 3 m/S 759 mmHg 87%
08:00 +27°C° 0 mm 4 m/S 759 mmHg 79%
09:00 +28°C° 0 mm 4 m/S 760 mmHg 71%
10:00 +29°C° 0 mm 5 m/S 760 mmHg 62%
11:00 +30°C° 0 mm 5 m/S 760 mmHg 60%
12:00 +30°C° 0 mm 5 m/S 759 mmHg 58%
13:00 +32°C° 0 mm 5 m/S 759 mmHg 55%
14:00 +30°C° 0 mm 5 m/S 758 mmHg 57%
15:00 +30°C° 0 mm 5 m/S 758 mmHg 59%
16:00 +30°C° 0 mm 5 m/S 757 mmHg 61%
17:00 +28°C° 0 mm 4 m/S 758 mmHg 67%
18:00 +27°C° 0 mm 4 m/S 758 mmHg 73%
19:00 +26°C° 0 mm 3 m/S 759 mmHg 80%
20:00 +26°C° 0.1 mm 3 m/S 759 mmHg 81%
21:00 +26°C° 0.1 mm 3 m/S 759 mmHg 83%
22:00 +25°C° 0.1 mm 3 m/S 760 mmHg 84%
23:00 +25°C° 0 mm 3 m/S 759 mmHg 83%

Morgen, 24 Juni, Donnerstag

Zeit Temperatur Niederschläge Wind Luftdruck Luftfeuchtigkeit
00:00 +25°C° 0 mm 3 m/S 759 mmHg 83%
01:00 +25°C° 0 mm 2 m/S 759 mmHg 82%
02:00 +25°C° 0.1 mm 2 m/S 759 mmHg 83%
03:00 +25°C° 0.1 mm 2 m/S 759 mmHg 84%
04:00 +25°C° 0.1 mm 2 m/S 758 mmHg 84%
05:00 +25°C° 0.1 mm 2 m/S 759 mmHg 86%
06:00 +24°C° 0.1 mm 2 m/S 759 mmHg 87%
07:00 +24°C° 0.1 mm 2 m/S 759 mmHg 88%
08:00 +26°C° 0.1 mm 3 m/S 759 mmHg 81%
09:00 +27°C° 0.1 mm 3 m/S 760 mmHg 74%
10:00 +29°C° 0.1 mm 4 m/S 760 mmHg 66%
11:00 +29°C° 0.1 mm 4 m/S 760 mmHg 65%
12:00 +30°C° 0.1 mm 4 m/S 759 mmHg 63%
13:00 +30°C° 0.1 mm 4 m/S 759 mmHg 62%
14:00 +30°C° 0.3 mm 5 m/S 758 mmHg 66%
15:00 +29°C° 0.3 mm 5 m/S 758 mmHg 70%
16:00 +28°C° 0.3 mm 5 m/S 757 mmHg 73%
17:00 +27°C° 0.6 mm 5 m/S 757 mmHg 79%
18:00 +26°C° 0.6 mm 4 m/S 758 mmHg 84%
19:00 +25°C° 0.6 mm 4 m/S 758 mmHg 89%
20:00 +25°C° 0.3 mm 4 m/S 758 mmHg 89%
21:00 +25°C° 0.3 mm 4 m/S 759 mmHg 89%
22:00 +23°C° 0.3 mm 4 m/S 759 mmHg 89%
23:00 +23°C° 0 mm 4 m/S 759 mmHg 89%

übermorgen, 25 Juni, Freitag

Zeit Temperatur Niederschläge Wind Luftdruck Luftfeuchtigkeit
00:00 +23°C° 0 mm 4 m/S 759 mmHg 89%
01:00 +23°C° 0 mm 4 m/S 759 mmHg 90%
02:00 +23°C° 0.3 mm 4 m/S 759 mmHg 90%
03:00 +23°C° 0.3 mm 4 m/S 758 mmHg 91%
04:00 +23°C° 0.3 mm 4 m/S 758 mmHg 92%
05:00 +23°C° 0.4 mm 4 m/S 759 mmHg 92%
06:00 +24°C° 0.4 mm 3 m/S 759 mmHg 92%
07:00 +24°C° 0.4 mm 3 m/S 759 mmHg 92%
08:00 +25°C° 0.2 mm 4 m/S 760 mmHg 86%
09:00 +27°C° 0.2 mm 4 m/S 760 mmHg 80%
10:00 +28°C° 0.2 mm 5 m/S 760 mmHg 73%
11:00 +29°C° 0.2 mm 5 m/S 760 mmHg 71%
12:00 +29°C° 0.2 mm 5 m/S 759 mmHg 68%
13:00 +30°C° 0.2 mm 5 m/S 759 mmHg 65%
14:00 +29°C° 0.5 mm 5 m/S 759 mmHg 68%
15:00 +29°C° 0.5 mm 5 m/S 758 mmHg 71%
16:00 +28°C° 0.5 mm 6 m/S 758 mmHg 74%
17:00 +27°C° 0.5 mm 5 m/S 758 mmHg 79%
18:00 +26°C° 0.5 mm 5 m/S 758 mmHg 84%
19:00 +25°C° 0.5 mm 5 m/S 758 mmHg 88%
20:00 +25°C° 0.2 mm 4 m/S 759 mmHg 89%
21:00 +25°C° 0.2 mm 4 m/S 759 mmHg 89%
22:00 +23°C° 0.2 mm 4 m/S 759 mmHg 89%
23:00 +23°C° 0 mm 5 m/S 759 mmHg 88%

26 Juni, Samstag

Zeit Temperatur Niederschläge Wind Luftdruck Luftfeuchtigkeit
00:00 +23°C° 0 mm 5 m/S 759 mmHg 87%
01:00 +23°C° 0 mm 5 m/S 759 mmHg 86%
02:00 +23°C° 0 mm 5 m/S 758 mmHg 84%
03:00 +25°C° 0 mm 5 m/S 758 mmHg 83%
04:00 +25°C° 0 mm 5 m/S 758 mmHg 81%
05:00 +25°C° 0 mm 5 m/S 758 mmHg 81%
06:00 +25°C° 0 mm 5 m/S 758 mmHg 82%
07:00 +25°C° 0 mm 5 m/S 758 mmHg 82%
08:00 +26°C° 0 mm 6 m/S 759 mmHg 75%
09:00 +27°C° 0 mm 6 m/S 759 mmHg 68%
10:00 +28°C° 0 mm 6 m/S 759 mmHg 61%
11:00 +29°C° 0 mm 6 m/S 759 mmHg 58%
12:00 +30°C° 0 mm 6 m/S 759 mmHg 55%
13:00 +30°C° 0 mm 6 m/S 758 mmHg 52%
14:00 +30°C° 0 mm 6 m/S 758 mmHg 53%
15:00 +30°C° 0 mm 6 m/S 757 mmHg 53%
16:00 +29°C° 0 mm 6 m/S 757 mmHg 54%
17:00 +28°C° 0 mm 6 m/S 757 mmHg 59%
18:00 +27°C° 0 mm 5 m/S 758 mmHg 65%
19:00 +25°C° 0 mm 5 m/S 758 mmHg 70%
20:00 +25°C° 0 mm 5 m/S 759 mmHg 74%
21:00 +23°C° 0 mm 5 m/S 759 mmHg 77%
22:00 +23°C° 0 mm 4 m/S 759 mmHg 80%
23:00 +23°C° 0 mm 5 m/S 759 mmHg 81%

27 Juni, Sonntag

Zeit Temperatur Niederschläge Wind Luftdruck Luftfeuchtigkeit
00:00 +23°C° 0 mm 5 m/S 759 mmHg 82%
01:00 +25°C° 0 mm 5 m/S 759 mmHg 84%
02:00 +23°C° 0.1 mm 5 m/S 758 mmHg 85%
03:00 +23°C° 0.1 mm 5 m/S 758 mmHg 86%
04:00 +23°C° 0.1 mm 5 m/S 758 mmHg 87%
05:00 +23°C° 0 mm 5 m/S 758 mmHg 87%
06:00 +23°C° 0 mm 5 m/S 758 mmHg 86%
07:00 +23°C° 0 mm 5 m/S 759 mmHg 86%
08:00 +26°C° 0 mm 5 m/S 759 mmHg 78%
09:00 +27°C° 0 mm 6 m/S 759 mmHg 70%
10:00 +29°C° 0 mm 6 m/S 760 mmHg 62%
11:00 +29°C° 0 mm 6 m/S 759 mmHg 59%
12:00 +30°C° 0 mm 7 m/S 759 mmHg 57%
13:00 +30°C° 0 mm 7 m/S 758 mmHg 54%
14:00 +30°C° 0 mm 7 m/S 758 mmHg 57%
15:00 +29°C° 0 mm 7 m/S 758 mmHg 60%
16:00 +29°C° 0 mm 6 m/S 758 mmHg 64%
17:00 +27°C° 0.2 mm 6 m/S 758 mmHg 70%
18:00 +26°C° 0.2 mm 6 m/S 759 mmHg 77%
19:00 +25°C° 0.2 mm 5 m/S 759 mmHg 84%
20:00 +25°C° 0.4 mm 5 m/S 759 mmHg 86%
21:00 +23°C° 0.4 mm 5 m/S 760 mmHg 88%
22:00 +23°C° 0.4 mm 4 m/S 760 mmHg 90%
23:00 +23°C° 0.3 mm 4 m/S 760 mmHg 90%

28 Juni, Montag

Zeit Temperatur Niederschläge Wind Luftdruck Luftfeuchtigkeit
00:00 +23°C° 0.3 mm 4 m/S 760 mmHg 90%
01:00 +22°C° 0.3 mm 4 m/S 759 mmHg 90%
02:00 +23°C° 0.2 mm 4 m/S 759 mmHg 89%
03:00 +23°C° 0.2 mm 4 m/S 759 mmHg 88%
04:00 +23°C° 0.2 mm 4 m/S 759 mmHg 87%
05:00 +23°C° 0.2 mm 4 m/S 759 mmHg 88%
06:00 +23°C° 0.2 mm 4 m/S 759 mmHg 88%
07:00 +23°C° 0.2 mm 4 m/S 760 mmHg 88%
08:00 +25°C° 0.1 mm 4 m/S 760 mmHg 82%
09:00 +26°C° 0.1 mm 5 m/S 760 mmHg 76%
10:00 +28°C° 0.1 mm 5 m/S 761 mmHg 70%
11:00 +28°C° 0.1 mm 6 m/S 760 mmHg 68%
12:00 +29°C° 0.1 mm 6 m/S 760 mmHg 65%
13:00 +30°C° 0.1 mm 6 m/S 760 mmHg 62%
14:00 +29°C° 0.3 mm 6 m/S 760 mmHg 66%
15:00 +28°C° 0.3 mm 6 m/S 759 mmHg 71%
16:00 +27°C° 0.3 mm 6 m/S 759 mmHg 75%
17:00 +27°C° 0.2 mm 6 m/S 759 mmHg 77%
18:00 +26°C° 0.2 mm 5 m/S 760 mmHg 79%
19:00 +25°C° 0.2 mm 5 m/S 760 mmHg 81%
20:00 +25°C° 0 mm 5 m/S 761 mmHg 82%
21:00 +23°C° 0 mm 4 m/S 761 mmHg 83%
22:00 +23°C° 0 mm 4 m/S 761 mmHg 84%
23:00 +23°C° 0 mm 4 m/S 761 mmHg 84%
Mehr zeigen

Wir brauchen deine Erlaubnis

Meteoprog und unser Service Anbieter werden persönliche Daten aufbewahren, so wie Cookies, Geräte Bezeichnung oder ähnliche Technologien von deinem Gerät und Prozess, so wie Persönliche Daten Inhalte und Werbungen, genauso wie social Media und den Verkehr zu analysieren.

  • Aufbewahrung und/oder Zugang zu deiner Geräte Informationen.

    Cookies, Geräte Bezeichnung oder andere Informationen, können aufbewahrt oder Zugang zu deinem Gerät erhalten, für den Grund, der oben angegeben wird.

  • Personalisierte Werbung und Inhalte, Messungen, Einblick in das Publikum und Produkt Entwicklung.

    Werbungen und Inhalte können personalisiert werden, basierend auf ein Profil. Mehr Daten können besser personalisierte Werbungen und Inhalte hinzufügen. Werbung und Inhalte können gezeigt und gemessen werden. Einblicke über das Publikum, welche die Werbung gesehen haben und den Inhalt, können abgeleitet werden. So wie Daten können genutzt werden, um es zu verbessern oder die Benutzer Erfahrung zu verbessern das System und die Software.

Wenn du “Ich stimme zu” klickst, erlaubst du uns, die Cookies zu benutzen die Geräte Bezeichnung, den Web oder ähnliche Technologien zu benutzen. Deine Settings, können in deinem Gerät bei deinem Browser geändert werden.

Für den bestimmten Zweck, berechtigten Interessen beruhen darauf, mehr als auf den Inhalt. Du kannst mehr darüber in unseren Privaten und Cookie Politik lesen.